Regional Weather Roundup
Issued by NWS Green Bay, WI

Home | Current Version | Previous Version | Graphics & Text | Print | Product List | Glossary Off
Versions: 1 2 3 4 5 6 7 8 9 10 11 12 13 14 15 16 17 18 19 20 21 22 23 24 25 26 27 28 29 30 31 32 33 34 35 36 37 38 39 40 41 42 43 44 45 46 47 48 49 50

000
ASUS43 KGRB 050311
RWRGRB

NORTH-CENTRAL AND NORTHEAST WISCONSIN REGIONAL WEATHER ROUNDUP
NATIONAL WEATHER SERVICE GREEN BAY WI
1000 PM CDT SAT JUL 04 2015

WIZ005-009-010>012-018-019-050400-
NORTH CENTRAL WISCONSIN

CITY           SKY/WX    TMP DP  RH WIND       PRES   REMARKS
IRONWOOD       PTCLDY    66  64  94 E5        29.90R
MANITOWISH WTR PTCLDY    64  61  91 SE5       29.95S
ARBOR VITAE    PTCLDY    67  62  83 CALM      29.96S
EAGLE RIVER    MOCLDY    68  61  77 S3        29.97R
LAND O LAKES   MOCLDY    62  58  88 CALM      29.98R
RHINELANDER    PTCLDY    66  61  84 CALM      29.98R
PHILLIPS       CLEAR     69  63  79 S5        29.94S
ANTIGO         CLEAR     66  63  89 SE7       29.99R
TOMAHAWK       PTCLDY    64  61  91 CALM      29.97R
MERRILL        PTCLDY    67  63  84 S3        29.98R
$$

WIZ013-073-050400-
NORTHEAST WISCONSIN

CITY           SKY/WX    TMP DP  RH WIND       PRES   REMARKS
IRON MOUNTAIN  PTCLDY    67  61  81 SE7       29.98R
MARINETTE      CLEAR     66  57  72 SE6       29.99R
OCONTO         CLEAR     65  63  92 SE3       29.99R
$$

WIZ017-030-035>037-045-050400-
CENTRAL WISCONSIN

CITY           SKY/WX    TMP DP  RH WIND       PRES   REMARKS
MEDFORD        CLEAR     67  64  88 SE3       29.96S FOG
WAUSAU         MOCLDY    73  63  70 E3        29.95R HAZE
MOSINEE        PTCLDY    72  66  83 S6        29.98R
MARSHFIELD     PTCLDY    70  63  78 S3        29.97R HAZE
WISC RAPIDS    CLEAR     70  63  78 S3        29.98R
STEVENS POINT  MOCLDY    70  62  75 S3        29.98R
WAUPACA        PTCLDY    72  64  78 CALM      29.97R
SHAWANO          N/A     70  64  80 SE3       29.98R
CLINTONVILLE   PTCLDY    70  63  78 SE3       29.97R
$$

WIZ038-039-048-051-050400-
FOX VALLEY

CITY           SKY/WX    TMP DP  RH WIND       PRES   REMARKS
NWS GREEN BAY  CLEAR     66  61  84 SE5       29.99R
APPLETON       MOCLDY    72  61  68 VRB5      29.99R
OSHKOSH        CLEAR     69  63  81 S3        29.98R
FOND DU LAC    CLEAR     69  63  81 S3        29.99R
$$

WIZ022-050-052-050400-
EAST CENTRAL WISCONSIN

CITY           SKY/WX    TMP DP  RH WIND       PRES   REMARKS
STURGEON BAY   CLEAR     61  55  82 SE6       30.03R
MANITOWOC      CLEAR     63  60  90 MISG      30.01R FOG
SHEBOYGAN      CLEAR     62  58  86 CALM      30.00R
$$

LMZ563-521-522-541>543-050400-
LAKESHORE

STATION/POSITION TIME  TEMP    WIND        PRES    VSBY  WAVE
                       AIR SEA DIR/SP/G                  HT/PER
                 (UTC) (F)     (DEG/KT/KT) (MB)    (MI)  (FT/S)
SHEBOYGAN LKSHOR 0300   62     150/  5/  6 1016.2R
KEWAUNEE LKSHORE 0200   62     140/  1/  3 1014.9R
NORTHPORT PIER   0200   63     170/  3/  6 1015.6R
N MID LAKE BUOY  0250   57 53  210/  6/  6 1016.4R         0
S GREEN BAY BUOY 0300   68 69  140/  8/ 10 1016.8R
SISTER BAY LKSHO 0244   62     160/  8/ 11   N/A
CHAMBERS ISLAND  0200   66     130/  2/  6 1015.2R
MENOMINEE LKSHOR 0200   68     160/  5/  7 1015.9R
$$



USA.gov is the U.S. government's official web portal to all federal, state and local government web resources and services.